Weather in Pervomayskoye

Russia / Amur Oblast     55°06′39″N   124°49′52″E
temp.,
°C
wind,
m/s
gust,
m/s
humid.,
%
clouds,
%
prec.,
mm/h
press.,
hPa
HPBL,
m
31 july, sat
sat3100:00+10e11966 0.3 100920
03:00+8ene009793 0.3 101010
06:00+9nne129898 0.0 101061
09:00+13ne3584100 0.0 1010716
12:00+16ene3657100 0.1 10091643
15:00+16ene466291 0.1 10091214
18:00+15e357469 0.1 1010803
21:00+11e148565 0.1 1012171
1 august, sun
sun100:00+10ne1192100 0.0 101235
03:00+9ne1295100 0.0 101186
06:00+10ne2884100 0.0 1011419
09:00+11ne2775100 0.0 1010394
12:00+11ne3891100 1.0 1008655
15:00+10ne51398100 12.0 10061099
18:00+10ene31099100 8.8 1006982
21:00+10ese3898100 10.3 1006619
2 august, mon
mon200:00+9se1199100 0.0 100778
03:00+9ese1198100 0.0 100724
06:00+9ese0098100 0.0 100835
09:00+11wsw019389 0.0 1008271
12:00+18w235763 0.0 10071481
15:00+20wsw125313 0.1 10071518
18:00+20w126348 0.0 10081247
21:00+13ese228791 0.0 101023
3 august, tue
tue300:00+11ese2296100 0.0 101027
03:00+11e2299100 0.0 101043
06:00+11e1299100 0.0 101165
09:00+13ese2487100 0.0 1011412
12:00+17ese3374100 0.0 1010552
15:00+19e3367100 0.0 1008702
18:00+18e2376100 0.0 1007358
21:00+14ese1195100 0.0 100712
4 august, wed
wed400:00+12ese1196100 0.0 100710
03:00+11e1197100 0.0 100610
06:00+12ene0096100 0.0 100616
09:00+17nw1177100 0.0 1005341
12:00+23nnw12610 0.0 1003832
15:00+25n12541 0.0 10011410
18:00+24e11640 0.0 1001982
21:00+16sse11902 0.8 100211